Flag for United Kingdom Weather past 2 weeks in London, England, United Kingdom

Now
57 °F

Broken clouds.


Feels Like: 55 °F
Forecast: 52 / 61 °F
Wind: 9 mph from Southwest

Location: Northolt

Current Time: May 27, 2015 at 11:20:21 PM

Latest Report: May 27, 2015 at 9:50 PM


Visibility: N/A

Pressure: 30.01 "Hg

Humidity: 72%

Dew point: 48 °F

Location of LondonLocation

Historic Weather in London — Graph

°F

London temperature yesterday

Maximum temperature yesterday: 66 °F (at 4:50 PM)
Minimum temperature yesterday: 46 °F (at 3:50 AM)
Average temperature yesterday: 57 °F

Past Weeks' High & Low Weather Summary

 TemperatureHumidityPressure
High68 °F (May 13, 3:57 PM)94% (May 14, 2:50 PM)30.36 "Hg (May 14, 2:50 PM)
Low39 °F (May 20, 3:50 AM)28% (May 13, 2:50 PM)29.56 "Hg (May 18, 12:50 PM)
Average54 °F69%30.09 "Hg
* Reported May 12 9:50 PM — May 27 9:50 PM, London, Weather by CustomWeather, © 2015

Note: Actual official high and low records may vary slightly from our data, if they occured in-between our weather recording intervals... More about our weather records

Advertising

London weather history for previous 24 hours

 ConditionsComfort  
Time TempWeatherWind HumidityBarometerVisibility
9:50 PM
Wed, May 27
57 °FBroken clouds.9 mph72%30.01 "HgN/A
8:50 PM59 °FLight rain. Partly sunny.12 mph68%30.01 "HgN/A
7:50 PM61 °FMostly cloudy.10 mph59%30.04 "HgN/A
6:50 PM63 °FBroken clouds.14 mph56%30.07 "HgN/A
5:50 PM64 °FMore clouds than sun.15 mph52%30.07 "HgN/A
4:50 PM66 °FBroken clouds.14 mph43%30.09 "HgN/A
3:50 PM66 °FPartly sunny.12 mph49%30.12 "HgN/A
2:50 PM66 °FBroken clouds.10 mph49%30.15 "HgN/A
1:50 PM64 °FSunny.10 mph43%30.18 "Hg10 mi
12:50 PM64 °FScattered clouds.9 mph46%30.21 "HgN/A
11:50 AM59 °FScattered clouds.8 mph51%30.21 "HgN/A
10:50 AM57 °FBroken clouds.7 mph51%30.24 "HgN/A
9:50 AM55 °FScattered clouds.6 mph55%30.27 "HgN/A
8:50 AM54 °FPassing clouds.8 mph58%30.30 "HgN/A
7:50 AM52 °FPassing clouds.9 mph62%30.30 "HgN/A
6:50 AM48 °FScattered clouds.8 mph76%30.30 "HgN/A
5:50 AM45 °FClear.6 mph81%30.30 "HgN/A
4:50 AM43 °FClear.2 mph87%30.30 "HgN/A
3:50 AM45 °FClear.3 mph81%30.30 "HgN/A
2:50 AM46 °FClear.5 mph76%30.30 "HgN/A
1:50 AM46 °FClear.3 mph82%30.30 "HgN/A
12:50 AM48 °FPassing clouds.3 mph82%30.30 "HgN/A
11:50 PM
Tue, May 26
50 °FClear.7 mph76%30.30 "HgN/A
Weather by CustomWeather, © 2015

See weather overviewHow to use our weather pages